{"data":{"norad_id":53830,"epoch":"2026-05-24T20:44:56.731200Z","epoch_age_seconds":90711,"freshness":"FRESH","line1":"1 53830U 22114N   26144.86454550  .00001730  00000+0  12684-3 0  9997","line2":"2 53830  53.2129 321.9862 0001674  79.3881 280.7299 15.08825516204338","mean_motion":15.08825516,"eccentricity":0.0001674,"inclination_deg":53.2129,"raan_deg":321.9862,"arg_perigee_deg":79.3881,"mean_anomaly_deg":280.7299,"bstar":0.00012684,"rev_number":20433,"period_min":95.438470832435,"perigee_km":538.62960052358,"apogee_km":540.94572170012,"semimajor_km":6917.9246611118,"source":"CELESTRAK","updated_at":"2026-05-25T13:38:17.571666Z"}}